Simultaneous Nadir Overpasses (SNOs) Predictions

Prediction of SNOs between METOP-B and TERRA Satellite Orbit:

Table of predicted SNOs for the next 14.0 days since TLE Epoch: 9/22/2015
Index Date (METOP-B) Time (METOP-B) Lat,Lon (METOP-B) SZA (METOP-B ) Date (TERRA) Time (TERRA) Lat,Lon (TERRA) SZA (TERRA ) Distance(km) Time Diff (sec)
1 09/24/2015 12:45:31 81.32, 35.91 84.77 09/24/2015 12:45:46 81.31, 36.04 84.79 2.16 15
2 09/24/2015 13:36:10 -81.33,-156.04 95.13 09/24/2015 13:35:12 -81.33,-156.07 95.16 0.52 58
3 09/27/2015 08:19:51 81.32, 102.66 85.93 09/27/2015 08:19:55 81.33, 102.73 85.95 1.24 4
4 09/27/2015 09:10:31 -81.33, -89.67 94.02 09/27/2015 09:09:22 -81.32, -89.73 94.06 1.16 69
5 09/30/2015 03:03:33 -81.32, 1.40 93.01 09/30/2015 03:04:40 -81.31, 1.26 93.00 2.40 67
6 09/
